Regional Weather Roundup
Issued by NWS

Home | Current Version | Previous Version | Text Only | Print | Product List | Glossary Off
Versions: 1 2 3 4 5 6 7 8 9 10 11 12 13 14 15 16 17 18 19 20 21 22 23 24 25 26 27 28 29 30 31 32 33 34 35 36 37 38 39 40 41 42 43 44 45 46 47 48 49 50

000
ASUS43 KTOP 220759
RWRKS

WEATHER ROUNDUP FOR KANSAS
NATIONAL WEATHER SERVICE GOODLAND KS
300 AM CDT TUE JUL 22 2014

NOTE:  "FAIR" INDICATES FEW OR NO CLOUDS BELOW 12,000 FEET WITH NO
SIGNIFICANT WEATHER AND/OR OBSTRUCTIONS TO VISIBILITY.

KSZ001>006-013>018-027>032-041>047-220900-
NORTHWEST KANSAS

CITY           SKY/WX    TMP DP  RH WIND       PRES   REMARKS
GOODLAND       CLEAR     71  61  70 SW14      30.08F
HAYS           PTCLDY    73  59  60 W7        30.01S
HILL CITY      CLEAR     76  59  55 SW9       29.99F
RUSSELL        PTCLDY    73  69  87 SE8       29.99R
$$

KSZ061>065-074>080-084>089-220900-
SOUTHWEST KANSAS

CITY           SKY/WX    TMP DP  RH WIND       PRES   REMARKS
DODGE CITY     CLOUDY    73  62  68 VRB7      30.04S
ELKHART          N/A    N/A N/A N/A MISG        N/A
GARDEN CITY    MOCLDY    71  62  73 SW5       30.04F
GREAT BEND     CLOUDY    75  68  78 CALM      30.00S
LIBERAL        MOCLDY    72  63  73 S8        30.05R
PRATT          CLOUDY    73  68  83 S6        30.02S
$$

KSZ066>073-081>083-090>101-220900-
SOUTHEAST KANSAS

CITY           SKY/WX    TMP DP  RH WIND       PRES   REMARKS
CHANUTE        MOCLDY    76  72  87 S9        30.02F
COFFEYVILLE    MOCLDY    75  72  90 S6        30.02F FOG
HUTCHINSON     CLOUDY    80  73  79 S7        30.00S
MEDICINE LODGE   N/A     77  72  84 SE9       29.99F
NEWTON         CLOUDY    81  70  69 S13       30.03S
PARSONS        MOCLDY    76  71  85 S5        30.04R
WICHITA INTL   CLOUDY    79  74  84 S8        30.00S
WICHITA JABRA  CLOUDY    80  74  81 S13       30.00S
WINFIELD       CLOUDY    79  75  87 S13       30.01F
$$

KSZ007>012-019>026-033>040-048>060-102>105-220900-
NORTHEAST KANSAS

CITY           SKY/WX    TMP DP  RH WIND       PRES   REMARKS
CONCORDIA      CLEAR     81  73  76 SW14      29.97R
EMPORIA        MOCLDY    76  74  93 S12       30.00R FOG
LAWRENCE       CLEAR     79  74  84 S7        29.98S HAZE
MANHATTAN      PTCLDY    79  73  82 S5        29.96S
OLATHE IND     CLEAR     76  73  91 S9        30.00S
OLATHE EXE     CLEAR     76  73  91 S6        29.99S
SALINA         MOCLDY    82  73  74 S12       29.98R
TOPEKA BILLARD PTCLDY    81  75  82 VRB5      29.97S
TOPEKA FORBES  PTCLDY    78  74  87 S9        29.98R
$$



USA.gov is the U.S. government's official web portal to all federal, state and local government web resources and services.